Flag Weather past 2 weeks in Majuro, Marshall Islands

Now
81 °F

Sprinkles. Cloudy.


Feels Like: 87 °F
Forecast: 82 / 87 °F
Wind: 17 mph from East

Location: Majuro Atoll

Current Time: Nov 26, 2014 at 10:26:53 AM

Latest Report: Nov 26, 2014 at 9:51 AM


Visibility: 12 mi

Pressure: 29.78 "Hg

Humidity: 86%

Dew point: 76 °F

Location of MajuroLocation

Historic Weather in Majuro — Graph

°F

Majuro temperature yesterday

Maximum temperature yesterday: 87 °F (at 9:51 AM)
Minimum temperature yesterday: 80 °F (at 12:52 PM)
Average temperature yesterday: 83 °F

Past Weeks' High & Low Weather Summary

 TemperatureHumidityPressure
High89 °F (Nov 13, 1:52 PM)92% (Nov 19, 9:53 PM)29.93 "Hg (Nov 19, 9:53 PM)
Low74 °F (Nov 20, 11:51 PM)68% (Nov 16, 11:51 AM)29.69 "Hg (Nov 25, 2:52 PM)
Average84 °F79%29.80 "Hg
* Reported Nov 11 8:55 AM — Nov 26 8:53 AM, Majuro, Weather by CustomWeather, © 2014

Note: Actual official high and low records may vary slightly from our data, if they occured in-between our weather recording intervals... More about our weather records

Advertising

Majuro weather history for previous 24 hours

 ConditionsComfort  
Time TempWeatherWind HumidityBarometerVisibility
8:53 AM
Nov 26
80 °FSprinkles. Cloudy.15 mph88%29.78 "Hg12 mi
7:52 AM78 °FSprinkles. Cloudy.16 mph91%29.75 "Hg12 mi
6:58 AM82 °FLight rain. Mostly cloudy.8 mph89%29.73 "Hg14 mi
5:50 AM81 °FSprinkles. Overcast.10 mph87%29.72 "Hg12 mi
4:56 AM82 °FOvercast.8 mph86%29.70 "Hg15 mi
3:53 AM82 °FOvercast.8 mph85%29.70 "Hg15 mi
2:51 AM82 °FLight rain. Mostly cloudy.8 mph82%29.70 "Hg14 mi
1:54 AM82 °FLight rain. Mostly cloudy.10 mph88%29.72 "Hg14 mi
12:53 AM80 °FSprinkles. Overcast.12 mph92%29.74 "Hg12 mi
11:54 PM
Nov 25
83 °FOvercast.12 mph86%29.75 "Hg15 mi
10:52 PM82 °FSprinkles. Overcast.17 mph86%29.76 "Hg12 mi
9:53 PM81 °FOvercast.10 mph91%29.75 "Hg15 mi
8:51 PM83 °FOvercast.14 mph86%29.75 "Hg15 mi
7:52 PM83 °FOvercast.15 mph85%29.73 "Hg15 mi
6:51 PM82 °FCloudy.9 mph82%29.71 "Hg15 mi
5:52 PM82 °FCloudy.14 mph83%29.70 "Hg15 mi
4:51 PM82 °FCloudy.10 mph87%29.70 "Hg15 mi
3:51 PM81 °FCloudy.14 mph88%29.69 "Hg15 mi
2:52 PM82 °FSprinkles. Cloudy.9 mph88%29.69 "Hg12 mi
1:50 PM82 °FCloudy.10 mph86%29.70 "Hg15 mi
12:52 PM80 °FThunderstorms. Cloudy.13 mph87%29.72 "Hg10 mi
11:55 AM82 °FCloudy.12 mph88%29.73 "Hg15 mi
10:51 AM84 °FCloudy.10 mph84%29.75 "Hg15 mi
Weather by CustomWeather, © 2014

See weather overviewHow to use our weather pages